Location: *
(50.3440°N, 18.6237°E)
Time: 17:36:16
(UTC+00:00)

Radarsat Rocket - Pass Details

Date: 30 November 2020
Orbit: 933 x 1491 km, 100.6° (Epoch: 17 January)

Event Time Altitude Azimuth Distance (km) Brightness Sun altitude
Rises 15:44:09 0° 161° (SSE) 3,660 7.1 -9.0°
Reaches altitude 10° 15:46:28 10° 161° (SSE) 2,759 6.4 -9.4°
Maximum altitude 15:52:40 87° 251° (WSW) 1,083 4.3 -10.3°
Drops below altitude 10° 15:59:42 10° 342° (NNW) 3,117 6.6 -11.3°
Sets 16:02:29 0° 343° (NNW) 4,166 7.3 -11.7°
